Погода в Пфундсе

Австрия     46°58′09″N   10°32′36″E
темп.,
°C
ветер,
м/с
пор.,
м/с
влажн.,
%
обл.,
%
осадки,
мм/ч
давл.,
гПа
погр.,
м
26 июля, пн
пн2623:00+9ююз228716 0.1 101519
02:00+8ююз229097 0.1 101623
05:00+9ю2288100 0.1 101529
08:00+11ююз1182100 0.1 101486
11:00+12зсз1180100 1.5 1014332
14:00+14ююз237568 4.3 1014628
17:00+15ю1369100 2.9 1013803
20:00+12з118328 5.8 101520
27 июля, вт
вт2723:00+8сз1195100 2.6 101835
02:00+9ссв0096100 3.4 101919
05:00+8ю219490 0.1 101813
08:00+10ююз229098 0.2 101897
11:00+15ююз236140 0.3 10161061
14:00+18ююз1445100 1.3 10142041
17:00+16всв1261100 1.9 1015823
20:00+12ююз1281100 4.0 101731
28 июля, ср
ср2823:00+10ююз228898 0.8 101925
02:00+8ююз22925 0.8 102034
05:00+7ю339360 0.0 101855
08:00+10ююз3488100 0.0 1017207
11:00+16ююз3456100 0.0 10161298
14:00+14сз2470100 0.8 1016823
17:00+15ссв217527 1.9 1017693
20:00+13ссв11880 3.3 101833
29 июля, чт
чт2923:00+9ююз11930 0.1 102010
02:00+9ююз22910 0.1 102027
05:00+8ююз33915 0.0 101938
08:00+11ююз23835 0.0 1019137
11:00+18ююз23490 0.0 10161141
14:00+22ююз243770 0.0 10132625
17:00+20ююз234383 0.1 10131508
20:00+16ююз336838 0.1 101453
30 июля, пт
пт3023:00+11ююз448644 0.1 101665
02:00+11ююв2293100 2.4 101635
05:00+10юз1193100 0.8 101519
08:00+10вюв1297100 4.1 1015120
11:00+15ююв127196 2.3 1013518
14:00+17зсз1267100 5.3 1011738
17:00+16с1176100 6.6 1011179
20:00+12сз1187100 12.4 101327